Location: Big Humbug Creek
(37.8930°N, 120.2199°W)
Time: 22:55:49
(UTC+00:00)

Cosmos 1125 Rocket - Pass Details

Date: 03 August 2024
Orbit: 756 x 776 km, 74.0° (Epoch: 10 September)

Event Time Altitude Azimuth Distance (km) Brightness Sun altitude
Rises 12:28:05 0° 335° (NNW) 3,228 6.8 -7.6°
Reaches altitude 10° 12:30:32 10° 329° (NNW) 2,296 6.0 -7.2°
Maximum altitude 12:35:29 47° 257° (WSW) 1,002 3.7 -6.4°
Drops below altitude 10° 12:40:24 10° 185° (S) 2,274 5.7 -5.5°
Sets 12:42:50 0° 179° (S) 3,193 6.4 -5.1°
